sat.trackr.live / text

‹ back to catalog

STARLINK-3995

NORAD 52632 · 2022-052AL

PAYLOAD ACTIVE UNKNOWN

§ Identity

Operator
Country
US
Launch date
2022-05-14
Launch site
AFETR
Launch vehicle
Mass (kg)
RCS (m²)

Purposes: comms

External: N2YO · Heavens-Above · Gunter

§ Orbital elements

Epoch: 2026-09-20T03:12:48.479616Z

Period
95.44 min
Inclination
53.1588°
Eccentricity
0.0001419
Mean motion
15.08833664 rev/d
Perigee alt
538.8 km
Apogee alt
540.7 km
Semi-major
6,917.9 km
B*
3.4857e-5
RAAN
115.5668°
Arg perigee
90.8991°
Mean anomaly
269.2163°
Rev number
24,035

§ Raw data

STARLINK-39951 52632U 22052AL  26263.13389444  .00000267  00000+0  34857-4 0  99992 52632  53.1588 115.5668 0001419  90.8991 269.2163 15.08833664240350

JSON: /api/v1/satellites/52632 · /tle

For live sub-satellite position, see the globe view (requires WebGL).

§ Visibility from observer

Set your observer location to see the next 7 days of passes ≥ 10°. The values pass through the URL so the page stays shareable.

No JS? Fill the form by hand. The geolocation button needs JavaScript.